Regional Weather Roundup
Issued by NWS Cleveland, OH

Home | Current Version | Previous Version | Text Only | Print | Product List | Glossary Off
Versions: 1 2 3 4 5 6 7 8 9 10 11 12 13 14 15 16 17 18 19 20 21 22 23 24 25 26 27 28 29 30 31 32 33 34 35 36 37 38 39 40 41 42 43 44 45 46 47 48 49 50

000
ASUS41 KCLE 241810
RWRCLE
OHIO REGIONAL WEATHER ROUNDUP
NATIONAL WEATHER SERVICE WILMINGTON, OH
200 PM EDT FRI APR 24 2015

NOTE: "FAIR" INDICATES FEW OR NO CLOUDS BELOW 12,000 FEET WITH NO
SIGNIFICANT WEATHER AND/OR OBSTRUCTIONS TO VISIBILITY.

OHZ001>008-015>018-024>027-034-035-043-044-241900-
   NORTHWEST OHIO

CITY           SKY/WX    TMP DP  RH WIND       PRES   REMARKS
DEFIANCE       SUNNY     56  21  25 VRB3      30.06F
FINDLAY        SUNNY     56  23  27 SW15      30.06F
TOLEDO EXPRESS SUNNY     54  21  27 SW8G18    30.06F
TOLEDO EXEC    SUNNY     54  21  27 NW12G17   30.07F
LIMA           SUNNY     55  23  28 W12       30.06F
$$

OHZ009>014-019>023-028>033-038-089-241900-
   NORTHEAST OHIO

CITY           SKY/WX    TMP DP  RH WIND       PRES   REMARKS
CLE-HOPKINS    SUNNY     46  29  51 N10       30.10F
CLE-LAKEFRONT  SUNNY     42  24  49 N8        30.09F
CUY CO. ARPT   SUNNY     45  28  53 NW16      30.09F
LORAIN-ELYRIA  SUNNY     48  29  47 N9        30.07F
ASHTABULA      SUNNY     44  23  43 NW15      30.07F
AKRON-CANTON   MOSUNNY   53  22  29 W16G23    30.04F
WOOSTER        LGT RAIN  51  28  41 W16G26    30.05F
MANSFIELD      SUNNY     53  24  32 W12G17    30.06F
YOUNGSTOWN     MOSUNNY   48  24  39 NW24      30.03F
$$

OHZ042-051>053-060>062-070>072-077>081-241900-
  SOUTHWEST OHIO

CITY           SKY/WX    TMP DP  RH WIND       PRES   REMARKS
CINC-COVINGTON CLOUDY    58  28  32 S6        30.10F
CINC-LUNKEN    MOSUNNY   56  26  31 S5        30.11F
HAMILTON       MOSUNNY   58  25  28 VRB7      30.11F
DAYTON         PTSUNNY   57  25  29 SW7       30.09F
WRIGHT-PAT AFB MOSUNNY   56  24  28 S6        30.08F
DAYTON GENERAL MOSUNNY   56  23  27 VRB6      30.09F
WILMINGTON     MOSUNNY   56  25  30 SW8       30.09F
$$

OHZ036-037-039>041-045>050-054>059-063>069-073>076-082>088-241900-
  CENTRAL AND SOUTHEAST OHIO

CITY           SKY/WX    TMP DP  RH WIND       PRES   REMARKS
COLUMBUS       MOSUNNY   55  24  30 VRB7      30.08F
OSU AIRPORT    SUNNY     56  26  31 W12       30.08F
BOLTON FIELD   SUNNY     55  27  33 W12G17    30.09F
RICKENBACK AFB SUNNY     55  26  33 W8        30.08F
NEWARK         SUNNY     55  25  31 W12G17    30.08F
MARION         SUNNY     55  22  27 NW12      30.08F
LANCASTER      SUNNY     54  26  34 MISG      30.09F
ZANESVILLE     SUNNY     53  24  32 NW13G20   30.07F
NEW PHILLY     SUNNY     55  24  30 NW12G23   30.06F
$$



USA.gov is the U.S. government's official web portal to all federal, state and local government web resources and services.